Regional Weather Roundup
Issued by NWS Little Rock, AR

Home | Current Version | Previous Version | Graphics & Text | Print | Product List | Glossary On
Versions: 1 2 3 4 5 6 7 8 9 10 11 12 13 14 15 16 17 18 19 20 21 22 23 24 25 26 27
000
ASUS44 KLZK 022005
RWRLZK

WEATHER ROUNDUP FOR ARKANSAS
NATIONAL WEATHER SERVICE LITTLE ROCK AR
300 PM CDT MON MAY 02 2016

NOTE: "FAIR" INDICATES FEW OR NO CLOUDS BELOW 12,000 FEET WITH NO
SIGNIFICANT WEATHER AND/OR OBSTRUCTIONS TO VISIBILITY.

ARZ001-003-010-029-022100-
NORTHWEST ARKANSAS

CITY           SKY/WX    TMP DP  RH WIND       PRES   REMARKS
FAYETTEVILLE   CLOUDY    53  49  86 N14       30.08F
FORT SMITH     CLOUDY    65  47  52 NW10      30.06F
HARRISON       CLOUDY    59  47  64 W8        30.06F
BENTONVILLE    PTSUNNY   55  45  67 NW6       30.10F
ROGERS         CLOUDY    54  47  77 NW8       30.09F
SILOAM SPGS    CLOUDY    55  43  62 NW12      30.10F
HIGHFILL       CLOUDY    57  48  72 NW9       30.09S
SPRINGDALE     CLOUDY    55  46  71 NW12      30.10S
$$

ARZ004-005-016-022100-
NORTH CENTRAL ARKANSAS

CITY           SKY/WX    TMP DP  RH WIND       PRES   REMARKS
BATESVILLE     CLOUDY    66  52  59 W6        30.03S
FLIPPIN        CLOUDY   N/A N/A N/A CALM      30.03F
MTN HOME       CLOUDY    60  47  61 NW7       30.04F
$$

ARZ040-041-022100-
WEST CENTRAL ARKANSAS

CITY           SKY/WX    TMP DP  RH WIND       PRES   REMARKS
MENA           CLOUDY    64  54  68 N8        30.07R
MOUNT IDA      CLOUDY    66  53  63 VRB5      30.02S
$$

ARZ009-017-025-026-028-022100-
NORTHEAST ARKANSAS

CITY           SKY/WX    TMP DP  RH WIND       PRES   REMARKS
CORNING          N/A     66  54  63 NW6       30.01F
JONESBORO      CLOUDY    65  54  67 NW9       30.01S
NEWPORT        PTSUNNY   66  53  63 NW6       30.04F
WALNUT RIDGE   PTSUNNY   66  50  55 W7        30.01F
BLYTHEVILLE    CLOUDY    67  58  72 NW6       30.00S
$$

ARZ022-023-033-042-044-022100-
CENTRAL ARKANSAS

CITY           SKY/WX    TMP DP  RH WIND       PRES   REMARKS
LITTLE ROCK    CLOUDY    68  53  58 N5        30.02F
N LITTLE ROCK    N/A     65  55  71 CALM      30.01F
SEARCY         PTSUNNY   65  54  67 CALM      30.04S
HOT SPRINGS    CLOUDY    66  54  65 SW3       30.03F
RUSSELLVILLE   CLOUDY    66  51  58 MISG      30.04F
$$

ARZ036-022100-
EAST ARKANSAS

CITY           SKY/WX    TMP DP  RH WIND       PRES   REMARKS
WEST MEMPHIS   CLOUDY    65  58  78 NW5       30.00R
$$

ARZ050-053-066-070-073-022100-
SOUTHWEST ARKANSAS

CITY           SKY/WX    TMP DP  RH WIND       PRES   REMARKS
ARKADELPHIA    FAIR      64  59  84 CALM      30.04F
CAMDEN         CLOUDY    66  55  68 E5        30.02F
TEXARKANA      CLOUDY    64  55  72 CALM      30.05S
EL DORADO      CLOUDY    61  58  90 NW6       30.05R
DE QUEEN       CLOUDY    65  55  70 SW6       30.03F
$$

ARZ056-057-069-022100-
SOUTHEAST ARKANSAS

CITY           SKY/WX    TMP DP  RH WIND       PRES   REMARKS
PINE BLUFF     CLOUDY    63  57  81 NW9       30.03S
STUTTGART      CLOUDY    63  55  77 NW12      30.03S
MONTICELLO     LGT RAIN  62  59  90 E3        30.00S

$$






USA.gov is the U.S. government's official web portal to all federal, state and local government web resources and services.